Stations météo

Publicité
Rennes, France (7130): Température de l'air & dewpoint: 13.01.2018 06:00:00 - 19.01.2018 06:00:00 (CET)Rennes, France (7130): Température de l'air 5cm: 13.01.2018 06:00:00 - 19.01.2018 06:00:00 (CET)Rennes, France (7130): Température de l'air -20cm & Température de l'air -100cm: 13.01.2018 06:00:00 - 19.01.2018 06:00:00 (CET)Rennes, France (7130): Vitesse du vent & gusts: 13.01.2018 06:00:00 - 19.01.2018 06:00:00 (CET)Rennes, France (7130): Direction du vent: 13.01.2018 06:00:00 - 19.01.2018 06:00:00 (CET)Rennes, France (7130): reduced air pressure: 13.01.2018 06:00:00 - 19.01.2018 06:00:00 (CET)Rennes, France (7130): visibility: 13.01.2018 06:00:00 - 19.01.2018 06:00:00 (CET)Rennes, France (7130): Ensoleillement: 13.01.2018 06:00:00 - 19.01.2018 06:00:00 (CET)Rennes, France (7130): Quantités de précipitations: 13.01.2018 06:00:00 - 19.01.2018 06:00:00 (CET)
Date & Time tt [°C] td [°C] tt 5cm [°C] tt -20cm [°C] tt -100cm [°C] ff [km/h] ff [knt] fx [km/h] fx [knt] dd ppp [hPa] vv [km] sd [min] rr [mm]
19.01.2018 06:00:00 4,6 2,8 2,6 8,8 9,6 9 5 20 11 SW 1015,4 10 0 0,0
19.01.2018 05:00:00 4,5 2,7 1,3 8,9 9,6 13 7 22 12 SW 1015,3 10 0 0,0
19.01.2018 04:00:00 4,4 2,6 2,1 8,9 9,6 11 6 23 13 SW 1015,4 10 0 0,0
19.01.2018 03:00:00 5,0 3,0 2,8 8,9 9,6 11 6 23 12 WSW 1015,1 10 0 0,0
19.01.2018 02:00:00 5,0 3,2 2,9 8,9 9,6 13 7 20 11 SW 1015,2 10 0 0,0
19.01.2018 01:00:00 5,9 3,4 3,6 9,0 9,6 15 8 21 11 WSW 1015,2 10 0 0,0
19.01.2018 00:00:00 6,1 3,3 4,3 9,0 9,6 15 8 27 15 W 1014,7 10 0 0,0
18.01.2018 23:00:00 6,9 3,5 5,1 9,0 9,6 16 9 31 17 W 1014,2 10 0 0,0
18.01.2018 22:00:00 7,3 4,1 4,9 9,0 9,6 18 10 31 17 W 1014,0 10 0 0,0
18.01.2018 21:00:00 8,6 5,2 5,6 9,0 9,6 18 10 37 20 W 1013,5 10 0 0,0
18.01.2018 20:00:00 8,4 5,1 6,2 9,0 9,6 15 8 29 15 W 1012,8 10 0 0,0
18.01.2018 19:00:00 9,9 4,9 7,9 8,9 9,6 16 9 30 16 W 1012,4 10 0 0,0
18.01.2018 18:00:00 10,0 6,0 8,1 8,9 9,6 18 10 35 19 W 1011,7 10 0 0,0
18.01.2018 17:00:00 11,4 7,9 10,4 8,9 9,6 15 8 40 22 W 1011,0 30 25 0,0
18.01.2018 16:00:00 11,7 8,5 10,6 8,8 9,6 27 15 49 26 W 1010,8 40 0 1,2
18.01.2018 15:00:00 13,8 10,8 13,7 8,7 9,6 24 13 42 23 W 1009,7 10 14 0,0
18.01.2018 14:00:00 14,7 11,3 12,9 8,7 9,6 29 15 51 28 W 1009,9 31 38 0,0
18.01.2018 13:00:00 13,0 11,2 12,6 8,6 9,6 30 16 49 26 WSW 1010,5 11 8 0,2
18.01.2018 12:00:00 13,3 11,2 11,9 8,6 9,6 24 13 45 24 WSW 1011,1 53 3 0,0
18.01.2018 11:00:00 11,9 11,0 11,4 8,5 9,6 21 11 39 21 WSW 1011,1 10 0 0,0
18.01.2018 10:00:00 11,6 10,5 11,0 8,5 9,6 22 12 42 23 SW 1011,0 43 0 0,0
18.01.2018 09:00:00 11,7 10,1 10,5 8,5 9,6 28 15 43 23 WSW 1010,9 10 0 0,0
18.01.2018 08:00:00 11,2 9,9 10,3 8,4 9,6 24 13 40 21 WSW 1010,7 10 0 0,0
18.01.2018 07:00:00 10,9 9,7 10,0 8,4 9,6 26 14 49 26 WSW 1010,7 10 0 0,0
18.01.2018 06:00:00 10,9 9,3 10,0 8,4 9,6 29 16 51 28 WSW 1011,0 10 0 0,0
18.01.2018 05:00:00 10,8 9,1 10,0 8,4 9,6 30 16 55 30 WSW 1011,5 37 0 0,0
18.01.2018 04:00:00 10,5 8,9 9,6 8,4 9,6 31 17 59 32 WSW 1011,9 10 0 0,0
18.01.2018 03:00:00 10,3 8,4 9,4 8,3 9,6 32 17 56 30 WSW 1012,4 35 0 0,0
18.01.2018 02:00:00 9,9 8,0 8,2 8,3 9,6 28 15 50 27 WSW 1013,5 10 0 0,0
18.01.2018 01:00:00 8,8 7,6 8,2 8,3 9,6 22 12 39 21 SW 1015,0 9 0 0,0
18.01.2018 00:00:00 8,9 6,7 7,3 8,3 9,6 24 13 44 24 SW 1015,5 10 0 0,0
17.01.2018 23:00:00 7,8 5,6 6,8 8,3 9,7 15 8 28 15 SW 1016,9 19 0 0,0
17.01.2018 22:00:00 7,4 5,0 6,0 8,3 9,6 18 10 29 16 SSW 1017,5 10 0 0,0
17.01.2018 21:00:00 6,9 4,2 4,9 8,3 9,6 16 8 26 14 SW 1018,5 34 0 0,0
17.01.2018 20:00:00 6,9 4,0 5,4 8,3 9,6 16 9 27 15 SW 1018,8 10 0 0,0
17.01.2018 19:00:00 7,0 3,6 5,5 8,3 9,6 16 9 31 17 SW 1018,7 10 0 0,0
17.01.2018 18:00:00 8,0 3,1 6,6 8,3 9,6 18 10 31 17 WSW 1019,5 10 16 0,0
17.01.2018 17:00:00 8,9 3,7 7,3 8,3 9,6 15 8 34 18 WSW 1019,5 10 27 0,0
17.01.2018 16:00:00 8,7 3,1 7,8 8,2 9,6 18 10 39 21 W 1019,5 10 28 0,0
17.01.2018 15:00:00 9,0 3,2 9,1 8,3 9,6 21 11 43 23 W 1019,4 10 28 0,0
17.01.2018 14:00:00 8,5 2,9 8,9 8,3 9,6 26 14 45 24 W 1019,4 10 47 0,0
17.01.2018 13:00:00 8,6 3,2 9,9 8,3 9,6 29 16 48 26 W 1019,4 10 60 0,0
17.01.2018 12:00:00 7,8 3,6 7,2 8,3 9,6 21 12 43 23 W 1019,7 20 56 0,0
17.01.2018 11:00:00 6,5 2,8 4,3 8,4 9,7 25 14 39 21 W 1018,7 33 60 0,0
17.01.2018 10:00:00 5,1 1,9 2,8 8,4 9,6 23 13 37 20 W 1017,7 36 42 0,0
17.01.2018 09:00:00 4,5 1,7 2,0 8,5 9,6 24 13 38 20 W 1016,6 37 0 0,0
17.01.2018 08:00:00 4,4 1,2 2,1 8,5 9,6 24 13 39 21 W 1015,4 10 0 0,0
17.01.2018 07:00:00 4,4 2,4 2,9 8,6 9,6 24 13 46 25 W 1014,3 10 0 0,0
17.01.2018 06:00:00 4,8 1,8 2,6 8,6 9,6 26 14 49 26 WNW 1013,6 10 0 0,2
17.01.2018 05:00:00 4,5 2,7 2,3 8,6 9,6 35 19 59 32 WNW 1012,7 5 0 0,6
17.01.2018 04:00:00 4,1 1,5 2,5 8,7 9,6 21 11 53 29 W 1011,7 10 0 0,0
17.01.2018 03:00:00 5,2 2,0 3,0 8,7 9,6 37 20 63 34 W 1011,1 10 0 0,0
17.01.2018 02:00:00 4,6 2,3 2,7 8,7 9,6 26 14 40 22 W 1010,1 10 0 0,0
17.01.2018 01:00:00 4,9 2,3 3,1 8,8 9,6 31 17 64 35 W 1009,6 10 0 0,2
17.01.2018 00:00:00 6,0 3,5 4,8 8,8 9,6 41 22 64 34 W 1008,5 10 0 0,4
16.01.2018 23:00:00 7,0 2,5 5,7 8,8 9,6 29 16 55 30 W 1007,2 10 0 0,0
16.01.2018 22:00:00 7,7 3,2 6,2 8,8 9,6 34 18 59 32 W 1007,3 10 0 0,0
16.01.2018 21:00:00 8,1 3,5 6,5 8,8 9,6 26 14 52 28 W 1006,6 10 0 0,0
16.01.2018 20:00:00 7,8 4,2 6,4 8,9 9,6 29 16 57 31 W 1006,5 10 0 0,0
16.01.2018 19:00:00 8,5 4,3 6,1 8,9 9,6 22 12 48 26 W 1006,1 10 0 0,2
16.01.2018 18:00:00 9,5 4,1 8,2 8,8 9,6 24 13 48 26 W 1006,8 10 7 0,0
16.01.2018 17:00:00 9,7 4,1 8,5 8,9 9,6 23 13 56 31 W 1006,5 35 13 0,0
16.01.2018 16:00:00 10,8 5,1 9,4 8,8 9,6 32 18 55 30 W 1006,6 23 27 0,0
16.01.2018 15:00:00 11,1 5,0 10,8 8,8 9,6 31 17 51 28 W 1006,3 10 38 0,0
16.01.2018 14:00:00 11,3 4,5 11,2 8,8 9,6 31 17 62 33 W 1007,5 19 22 0,0
16.01.2018 13:00:00 11,5 4,0 10,3 8,8 9,6 35 19 56 31 W 1008,6 10 31 0,0
16.01.2018 12:00:00 10,3 6,8 9,9 8,8 9,6 22 12 33 18 WNW 1009,2 10 3 0,0
16.01.2018 11:00:00 11,3 6,0 9,5 8,8 9,6 21 12 39 21 W 1008,5 16 29 0,0
16.01.2018 10:00:00 10,2 6,5 8,7 8,8 9,6 21 11 43 23 W 1008,1 10 31 0,0
16.01.2018 09:00:00 10,2 6,3 8,2 8,8 9,6 26 14 42 23 W 1007,3 29 0 0,0
16.01.2018 08:00:00 10,2 6,9 8,4 8,7 9,6 24 13 43 23 W 1006,7 20 0 0,0
16.01.2018 07:00:00 9,8 7,6 8,1 8,8 9,6 20 11 35 19 WSW 1006,0 47 0 0,0
16.01.2018 06:00:00 10,2 7,6 8,7 8,8 9,6 22 12 53 28 WSW 1005,7 10 0 0,0
16.01.2018 05:00:00 9,9 8,3 8,6 8,7 9,6 25 14 39 21 WSW 1005,5 49 0 0,0
16.01.2018 04:00:00 9,7 8,0 8,0 8,7 9,6 24 13 40 22 WSW 1006,1 60 0 0,0
16.01.2018 03:00:00 9,7 7,5 8,3 8,7 9,6 23 12 47 26 W 1006,5 12 0 0,0
16.01.2018 02:00:00 9,9 7,0 8,1 8,7 9,6 20 11 49 26 W 1006,5 48 0 0,0
16.01.2018 01:00:00 9,5 7,9 8,5 8,7 9,6 18 10 47 26 SW 1006,8 10 0 0,0
16.01.2018 00:00:00 9,9 7,8 8,6 8,7 9,6 21 11 41 22 WSW 1006,8 10 0 0,2
15.01.2018 23:00:00 10,5 8,8 9,5 8,6 9,6 26 14 48 26 WSW 1006,9 18 0 0,0
15.01.2018 22:00:00 10,3 8,6 8,8 8,6 9,6 24 13 39 21 WSW 1006,5 58 0 0,0
15.01.2018 21:00:00 9,9 8,0 8,9 8,6 9,6 18 10 34 18 SW 1006,5 10 0 0,0
15.01.2018 20:00:00 10,4 8,0 8,8 8,6 9,7 21 12 37 20 WSW 1006,7 53 0 0,0
15.01.2018 19:00:00 10,5 8,1 8,9 8,5 9,6 20 11 34 18 W 1006,6 60 0 0,0
15.01.2018 18:00:00 11,0 9,1 9,5 8,4 9,7 21 11 36 20 W 1005,7 10 5 0,0
15.01.2018 17:00:00 11,3 9,0 10,2 8,4 9,6 21 11 56 30 W 1005,4 10 0 0,0
15.01.2018 16:00:00 11,6 10,7 11,1 8,3 9,7 28 15 53 29 W 1004,9 10 0 3,9
15.01.2018 15:00:00 12,4 11,1 11,4 8,3 9,7 29 16 45 24 WSW 1004,7 9 4 0,2
15.01.2018 14:00:00 11,3 10,7 10,3 8,2 9,7 24 13 46 25 SW 1005,4 10 0 0,4
15.01.2018 13:00:00 10,4 9,6 9,6 8,2 9,7 29 16 54 29 SSW 1006,7 5 0 0,6
15.01.2018 12:00:00 9,9 9,1 9,1 8,2 9,7 35 19 62 34 SSW 1008,0 7 4 0,2
15.01.2018 11:00:00 9,4 8,5 8,4 8,1 9,6 35 19 61 33 SSW 1009,7 7 0 0,4
15.01.2018 10:00:00 8,8 7,9 7,4 8,2 9,7 23 12 36 20 SSW 1010,8 16 0 0,6
15.01.2018 09:00:00 7,8 7,0 6,8 8,1 9,7 18 10 32 17 S 1012,4 10 0 0,2
15.01.2018 08:00:00 7,4 6,3 6,4 8,2 9,7 21 11 34 19 S 1013,6 7 0 0,2
15.01.2018 07:00:00 6,6 5,9 5,8 8,2 9,7 17 9 33 18 S 1014,6 7 0 0,0
15.01.2018 06:00:00 6,0 5,4 5,5 8,2 9,7 21 11 30 16 S 1015,2 4,8 0 0,0
15.01.2018 05:00:00 5,7 5,0 4,7 8,2 9,7 16 9 29 16 S 1016,8 8 0 0,0
15.01.2018 04:00:00 5,2 4,5 4,3 8,2 9,7 15 8 22 12 S 1017,5 10 0 0,0
15.01.2018 03:00:00 5,0 4,3 4,0 8,2 9,7 11 6 18 10 SSW 1018,6 10 0 0,0
15.01.2018 02:00:00 5,2 4,5 4,8 8,2 9,7 8 4 15 8 S 1018,7 10 0 0,0
15.01.2018 01:00:00 5,1 4,5 4,7 8,2 9,7 11 6 19 10 SSW 1019,8 10 0 0,0
15.01.2018 00:00:00 4,9 4,5 4,8 8,2 9,7 13 7 20 11 WSW 1020,7 6 0 0,0
14.01.2018 23:00:00 4,9 4,5 4,8 8,2 9,7 11 6 19 10 SW 1020,5 4,3 0 0,0
14.01.2018 22:00:00 5,1 4,7 5,0 8,2 9,7 10 5 18 10 SW 1020,7 3,0 0 0,0
14.01.2018 21:00:00 5,5 4,8 5,4 8,2 9,7 10 6 17 9 SSW 1019,9 5 0 0,0
14.01.2018 20:00:00 5,8 4,8 5,6 8,1 9,7 4 2 12 6 SW 1019,4 7 0 0,0
14.01.2018 19:00:00 6,0 5,0 5,8 8,1 9,8 8 4 11 6 S 1018,8 4,0 0 0,0
14.01.2018 18:00:00 6,2 4,8 5,9 8,1 9,8 2 1 7 4 WSW 1019,0 6 0 0,0
14.01.2018 17:00:00 6,4 4,9 6,7 8,1 9,8 4 2 11 6 - 1018,6 6 0 0,0
14.01.2018 16:00:00 6,2 4,7 7,9 8,1 9,8 6 3 12 7 N 1017,7 6 0 0,0
14.01.2018 15:00:00 5,7 4,5 7,9 8,0 9,8 7 4 10 6 NNW 1017,6 4,1 0 0,0
14.01.2018 14:00:00 5,2 4,0 6,7 8,0 9,8 4 2 10 5 N 1017,7 3,3 0 0,0
14.01.2018 13:00:00 5,1 3,6 6,7 8,1 9,8 4 2 13 7 - 1017,9 4,1 0 0,0
14.01.2018 12:00:00 4,9 3,2 5,8 8,0 9,8 5 3 13 7 NE 1017,7 5 0 0,0
14.01.2018 11:00:00 4,3 3,3 4,2 8,0 9,8 6 4 9 5 N 1017,2 4,5 0 0,0
14.01.2018 10:00:00 3,6 2,7 3,4 8,0 9,8 4 2 13 7 NNE 1016,8 4,1 13 0,0
14.01.2018 09:00:00 3,6 2,4 3,1 8,1 9,8 5 3 10 5 N 1016,4 4,6 0 0,0
14.01.2018 08:00:00 3,5 2,3 3,1 8,1 9,8 9 5 13 7 NNE 1015,7 6 0 0,0
14.01.2018 07:00:00 3,4 2,4 2,5 8,1 9,8 9 5 16 8 NNE 1015,2 5 0 0,0
14.01.2018 06:00:00 3,4 2,4 2,9 8,1 9,8 11 6 17 9 NNE 1015,0 5 0 0,0
14.01.2018 05:00:00 3,6 2,4 3,2 8,1 9,8 12 6 19 10 NE 1014,6 6 0 0,0
14.01.2018 04:00:00 3,9 2,6 3,0 8,1 9,8 11 6 18 10 NE 1014,6 6 0 0,0
14.01.2018 03:00:00 3,9 2,6 3,2 8,1 9,8 12 6 19 10 ENE 1014,5 6 0 0,0
14.01.2018 02:00:00 4,2 2,7 3,5 8,2 9,8 11 6 17 9 ENE 1014,5 7 0 0,0
14.01.2018 01:00:00 4,2 2,9 2,6 8,2 9,8 13 7 20 11 E 1014,7 7 0 0,0
14.01.2018 00:00:00 3,7 2,7 2,1 8,2 9,8 9 5 19 10 E 1014,7 6 0 0,0
13.01.2018 23:00:00 4,5 2,8 3,7 8,2 9,8 12 7 20 11 ESE 1014,6 7 0 0,0
13.01.2018 22:00:00 4,5 2,8 3,7 8,2 9,8 13 7 26 14 ESE 1014,8 8 0 0,0
13.01.2018 21:00:00 4,7 2,9 4,0 8,2 9,8 15 8 33 18 ESE 1014,7 9 0 0,0
13.01.2018 20:00:00 4,9 3,1 4,2 8,2 9,8 18 10 30 16 ESE 1014,8 9 0 0,0
13.01.2018 19:00:00 5,1 3,1 4,1 8,2 9,8 16 9 31 17 ESE 1014,6 9 0 0,0
13.01.2018 18:00:00 5,2 3,4 4,4 8,2 9,8 18 10 31 17 E 1014,6 10 0 0,0
13.01.2018 17:00:00 5,6 3,6 5,0 8,2 9,8 16 9 29 16 ESE 1014,6 10 0 0,0
13.01.2018 16:00:00 6,1 3,9 6,2 8,2 9,8 14 8 27 14 ESE 1014,9 10 0 0,0
13.01.2018 15:00:00 6,2 3,9 6,6 8,2 9,9 16 9 28 15 ESE 1014,7 13 0 0,0
13.01.2018 14:00:00 6,2 3,7 6,3 8,2 9,9 15 8 29 15 ESE 1015,6 11 16 0,0
13.01.2018 13:00:00 5,3 3,5 5,9 8,2 9,9 15 8 35 19 ESE 1016,6 12 0 0,0
13.01.2018 12:00:00 5,1 3,3 5,2 8,2 9,9 18 10 30 16 ESE 1017,2 10 0 0,0
13.01.2018 11:00:00 4,6 3,3 3,9 8,2 9,8 16 9 32 17 SE 1017,7 8 0 0,0
13.01.2018 10:00:00 4,0 3,1 2,9 8,3 9,9 19 11 33 18 ESE 1017,3 6 0 0,0
13.01.2018 09:00:00 3,6 2,9 2,8 8,3 9,9 17 9 27 15 SE 1017,7 3,7 0 0,0
13.01.2018 08:00:00 3,6 2,9 2,8 8,3 9,9 10 5 24 13 SE 1018,2 3,6 0 0,0
13.01.2018 07:00:00 3,4 2,7 2,6 8,3 9,9 14 8 27 14 SE 1017,9 4,2 0 0,0
13.01.2018 06:00:00 3,9 2,7 3,0 8,4 9,9 13 7 21 11 SE 1018,2 6 0 0,0

tt = Température de l'air
td = dewpoint
tt 5cm = Température de l'air 5cm
tt -20cm = Température de l'air -20cm
tt -100cm = Température de l'air -100cm
ff = Vitesse du vent
fx = gusts
dd = Direction du vent
ppp = reduced air pressure
vv = visibility
sd = Ensoleillement
rr = Quantités de précipitations

stations d'obs. à proximité